Printer-friendly version

IAU Minor Planet Center

Minor Planet Center

MPEC 2005-M61 : 2005 MG5

The following Minor Planet Electronic Circular may be linked-to from your own Web pages, but must not otherwise be redistributed electronically.


Read MPEC 2005-M60 Read MPEC 2005-M62


M.P.E.C. 2005-M61                                Issued 2005 June 28, 10:57 UT

     The Minor Planet Electronic Circulars contain information on unusual
         minor planets and routine data on comets.  They are published
   on behalf of Commission 20 of the International Astronomical Union by the
          Minor Planet Center, Smithsonian Astrophysical Observatory,
                          Cambridge, MA 02138, U.S.A.

                  Supported in part by the Brinson Foundation
             Prepared using the Tamkin Foundation Computer Network

                              MPC@CFA.HARVARD.EDU
          URL http://cfa-www.harvard.edu/iau/mpc.html  ISSN 1523-6714

                                   2005 MG5

Observations:
     K05M05G  C2005 06 16.35829 16 50 29.43 -21 34 17.5          18.3 V EM061G96
     K05M05G  C2005 06 16.36363 16 50 29.40 -21 34 08.4          18.1 V EM061G96
     K05M05G  C2005 06 16.37425 16 50 29.32 -21 33 53.2          17.1 V EM061G96
     K05M05G* C2005 06 27.25646 16 54 13.93 -16 07 16.6          18.3 V EM061G96
     K05M05G  C2005 06 27.26189 16 54 14.04 -16 07 05.8          18.2 V EM061G96
     K05M05G  C2005 06 27.26736 16 54 14.14 -16 06 55.0          18.2 V EM061G96
     K05M05G  C2005 06 27.27281 16 54 14.25 -16 06 44.4          18.2 V EM061G96
     K05M05G  C2005 06 27.30758 16 54 15.03 -16 05 35.2          18.2 V EM061G96
     K05M05G  C2005 06 27.31597 16 54 15.18 -16 05 18.8          17.9 V EM061G96
     K05M05G  C2005 06 27.32428 16 54 15.46 -16 05 02.5                 EM061G96
     K05M05G  C2005 06 27.33260 16 54 15.66 -16 04 44.2          17.9 V EM061G96
     K05M05G  C2005 06 28.13835 16 54 45.18 -15 37 38.2          18.7 R EM061I77
     K05M05G  C2005 06 28.14403 16 54 45.43 -15 37 27.1          18.8 R EM061I77
     K05M05G  C2005 06 28.15235 16 54 45.64 -15 37 11.4          18.7 R EM061I77
     K05M05G  C2005 06 28.19172 16 54 48.66 -15 36 26.7          19.3 R EM061649
     K05M05G  C2005 06 28.19528 16 54 48.76 -15 36 20.0          18.5 R EM061649
     K05M05G  C2005 06 28.19884 16 54 48.81 -15 36 12.7          18.7 R EM061649
     K05M05G  C2005 06 28.20239 16 54 48.94 -15 36 06.0          18.5 R EM061649
     K05M05G  C2005 06 28.29051 16 54 51.78 -15 33 06.1          19.2 R EM061854
     K05M05G  C2005 06 28.29635 16 54 51.95 -15 32 56.4          19.2 R EM061854
     K05M05G  C2005 06 28.30222 16 54 52.12 -15 32 43.6          19.2 R EM061854

Observer details:
649 Powell Observatory, Louisburg.  Observers R. Trentman, R. Fredrick.
    0.75-m Newtonian reflector + CCD.
854 Sabino Canyon Observatory, Tucson.  Observer J. E. McGaha.  0.36-m f/10.0
    Schmidt-Cassegrain + CCD.
G96 Mt. Lemmon Survey.  Observers D. McCarthy, C. M. Casey.  Measurers
    E. C. Beshore, C. M. Casey, E. J. Christensen, G. J. Garradd, A. D. Grauer,
    R. E. Hill, S. M. Larson, R. H. McNaught.  1.5-m reflector + CCD.
I77 CEAMIG-REA Observatory, Belo Horizonte.  Observers C. Jacques, E. Pimentel.
    Measurer C. Jacques.  0.30-m f/3.0 Schmidt-Cassegrain + CCD.

Orbital elements:
2005 MG5
Epoch 2005 June 19.0 TT = JDT 2453540.5                 MPC
M 344.94005              (2000.0)            P               Q
n   0.31654352     Peri.   46.25463     +0.60413724     +0.78855065
a   2.1322941      Node   261.26114     -0.76046153     +0.52740303
e   0.4546350      Incl.    6.67673     -0.23815217     +0.31628140
P   3.11           H   20.4           G   0.15
From 20 observations 2005 June 16-28.

Ephemeris:
2005 MG5                 a,e,i = 2.13, 0.45, 7                   q = 1.1629
Date    TT    R. A. (2000) Decl.     Delta      r     Elong.  Phase     V
2005 06 29    16 55.34   -15 09.0    0.230    1.230   155.9    19.7    18.6
2005 07 09    17 05.34   -09 22.1    0.212    1.200   146.8    27.7    18.7
2005 07 19    17 22.51   -03 35.7    0.203    1.178   139.4    34.1    18.7
2005 07 29    17 46.93   +01 35.7    0.202    1.166   134.4    38.5    18.8
2005 08 08    18 17.50   +05 42.2    0.209    1.163   131.7    40.6    18.9
2005 08 18    18 52.40   +08 27.0    0.223    1.171   131.0    40.7    19.1
2005 08 28    19 29.02   +09 50.1    0.245    1.187   131.7    39.4    19.3
2005 09 07    20 05.07   +10 03.4    0.277    1.213   132.9    37.5    19.5
2005 09 17    20 39.19   +09 31.2    0.319    1.247   133.8    35.6    19.9
2005 09 27    21 10.60   +08 37.6    0.371    1.287   133.7    34.2    20.2
2005 10 07    21 39.32   +07 41.2    0.436    1.334   132.5    33.6    20.6
2005 10 17    22 05.73   +06 55.7    0.514    1.384   130.0    33.5    21.1
2005 10 27    22 30.17   +06 27.4    0.604    1.438   126.7    33.7    21.5
2005 11 06    22 53.10   +06 18.1    0.706    1.495   122.6    34.0    21.9

Timothy B. Spahr             (C) Copyright 2005 MPC           M.P.E.C. 2005-M61

Read MPEC 2005-M60 Read MPEC 2005-M62


Our Web policy. Index to the CBAT/MPC/ICQ pages.


Valid HTML 4.01!